Location: Ehrke Reservoir
(40.0279°N, 99.6641°W)
Time: 20:03:42
(UTC+00:00)

SL-14 R/B - Pass Details

Date: 20 January 2020
Orbit: 517 x 556 km, 82.4° (Epoch: 16 February)

Event Time Altitude Azimuth Distance (km) Brightness Sun altitude
Rises 00:44:13 0° 199° (SSW) 2,716 7.4 -11.9°
Reaches altitude 10° 00:46:26 10° 205° (SSW) 1,823 6.6 -12.3°
Maximum altitude 00:50:20 49° 280° (W) 715 4.3 -13.0°
Drops below altitude 10° 00:54:13 10° 356° (N) 1,819 5.8 -13.8°
Sets 00:56:26 0° 2° (N) 2,710 6.7 -14.2°
